Terminal Aerodrome Forecast
Issued by NWS Melbourne, FL

Home | Current Version | Previous Version | Text Only | Print | Product List | Glossary On
Versions: 1 2 3 4 5 6 7 8 9 10 11 12 13 14 15 16 17 18
087
FTUS42 KMLB 282123 AAB
TAFDAB
TAF AMD
KDAB 282123Z 2821/2918 VRB04KT P6SM FEW025 SCT050 BKN250
     FM290100 24003KT P6SM SCT060 BKN120
     FM291400 22007KT P6SM SCT025=

USA.gov is the U.S. government's official web portal to all federal, state and local government web resources and services.